Location: Gälforsberget
(66.6500°N, 22.4167°E)
Time: 22:00:12
(UTC+00:00)

SL-16 R/B - Pass Details

Date: 11 April 2026
Orbit: 841 x 845 km, 71.0° (Epoch: 13 May)

Event Time Altitude Azimuth Distance (km) Brightness Sun altitude
Rises 22:26:37 0° 284° (WNW) 3,411 5.6 -14.8°
Reaches altitude 10° 22:29:07 10° 289° (WNW) 2,476 4.9 -14.8°
Maximum altitude 22:34:44 58° 8° (N) 989 2.9 -14.8°
Drops below altitude 10° 22:40:21 10° 88° (E) 2,476 4.7 -14.7°
Sets 22:42:51 0° 93° (E) 3,411 5.4 -14.7°
